Time,TemperatureF,DewpointF,PressureIn,WindDirection,WindDirectionDegrees,WindSpeedMPH,WindSpeedGustMPH,Humidity,HourlyPrecipIn,Conditions,Clouds,dailyrainin,SoftwareType,DateUTC
2013-05-12 00:02:00,38.1,23.4,30.10,North,357,0.0,0.0,55,0.00,,---,0.00,VWS V14.01,2013-05-12 04:02:00,
2013-05-12 00:04:00,38.1,23.4,30.10,North,357,0.0,0.0,55,0.00,,---,0.00,VWS V14.01,2013-05-12 04:04:00,
2013-05-12 00:05:00,38.1,23.4,30.10,North,357,0.0,0.0,55,0.00,,---,0.00,VWS V14.01,2013-05-12 04:05:00,
2013-05-12 00:06:00,38.1,23.4,30.10,North,357,0.0,0.0,55,0.00,,---,0.00,VWS V14.01,2013-05-12 04:06:00,
2013-05-12 00:11:00,37.9,23.7,30.10,North,357,0.0,0.0,56,0.00,,---,0.00,VWS V14.01,2013-05-12 04:11:00,
2013-05-12 00:13:00,37.8,23.6,30.10,North,357,0.0,0.0,56,0.00,,---,0.00,VWS V14.01,2013-05-12 04:13:00,
2013-05-12 00:18:00,37.6,23.4,30.10,North,357,0.0,0.0,56,0.00,,---,0.00,VWS V14.01,2013-05-12 04:18:00,
2013-05-12 00:23:00,37.4,23.2,30.10,North,357,0.0,0.0,56,0.00,,---,0.00,VWS V14.01,2013-05-12 04:23:00,
2013-05-12 00:28:00,37.2,23.5,30.10,North,357,0.0,0.0,57,0.00,,---,0.00,VWS V14.01,2013-05-12 04:28:00,
2013-05-12 00:33:00,37.0,23.3,30.10,North,357,0.0,0.0,57,0.00,,---,0.00,VWS V14.01,2013-05-12 04:33:00,
2013-05-12 00:38:00,37.0,23.3,30.10,North,357,0.0,0.0,57,0.00,,---,0.00,VWS V14.01,2013-05-12 04:38:00,
2013-05-12 00:43:00,36.9,23.6,30.10,North,357,0.0,0.0,58,0.00,,---,0.00,VWS V14.01,2013-05-12 04:43:00,
2013-05-12 00:48:00,36.7,23.4,30.10,North,357,0.0,0.0,58,0.00,,---,0.00,VWS V14.01,2013-05-12 04:48:00,
2013-05-12 00:53:00,36.7,23.4,30.10,North,357,0.0,0.0,58,0.00,,---,0.00,VWS V14.01,2013-05-12 04:53:00,
2013-05-12 00:58:00,36.9,24.0,30.10,North,357,0.0,0.0,59,0.00,,---,0.00,VWS V14.01,2013-05-12 04:58:00,
2013-05-12 01:03:00,36.9,24.5,30.10,North,357,0.0,0.0,60,0.00,,---,0.00,VWS V14.01,2013-05-12 05:03:00,
2013-05-12 01:08:00,36.9,24.5,30.10,North,357,0.0,0.0,60,0.00,,---,0.00,VWS V14.01,2013-05-12 05:08:00,
2013-05-12 01:13:00,36.9,24.9,30.10,North,357,0.0,0.0,62,0.00,,---,0.00,VWS V14.01,2013-05-12 05:13:00,
2013-05-12 01:18:00,37.0,25.5,30.10,North,357,0.0,0.0,63,0.00,,---,0.00,VWS V14.01,2013-05-12 05:18:00,
2013-05-12 01:23:00,37.0,25.9,30.10,North,353,0.0,4.5,64,0.00,,---,0.00,VWS V14.01,2013-05-12 05:23:00,
2013-05-12 01:28:00,37.0,25.9,30.10,SW,232,0.0,4.5,64,0.00,,---,0.00,VWS V14.01,2013-05-12 05:28:00,
2013-05-12 01:33:00,37.2,26.1,30.10,West,268,0.0,4.5,64,0.00,,---,0.00,VWS V14.01,2013-05-12 05:33:00,
2013-05-12 01:38:00,37.4,26.6,30.10,North,357,0.0,4.5,65,0.00,,---,0.00,VWS V14.01,2013-05-12 05:38:00,
2013-05-12 01:43:00,37.8,27.0,30.10,North,357,0.0,4.5,65,0.00,,---,0.00,VWS V14.01,2013-05-12 05:43:00,
2013-05-12 01:48:00,37.9,26.8,30.10,North,0,0.0,4.5,64,0.00,,---,0.00,VWS V14.01,2013-05-12 05:48:00,
2013-05-12 01:53:00,38.1,26.5,30.10,NNW,336,0.0,4.5,63,0.00,,---,0.00,VWS V14.01,2013-05-12 05:53:00,
2013-05-12 01:58:00,38.1,26.5,30.10,North,357,0.0,4.5,63,0.00,,---,0.00,VWS V14.01,2013-05-12 05:58:00,
2013-05-12 02:03:00,38.1,26.1,30.10,NNW,338,0.0,0.0,62,0.00,,---,0.00,VWS V14.01,2013-05-12 06:03:00,
2013-05-12 02:08:00,38.1,25.7,30.10,NNE,12,0.0,3.1,60,0.00,,---,0.00,VWS V14.01,2013-05-12 06:08:00,
2013-05-12 02:13:00,38.1,25.7,30.10,NNE,12,0.0,3.1,60,0.00,,---,0.00,VWS V14.01,2013-05-12 06:13:00,
2013-05-12 02:18:00,38.1,25.7,30.10,NNE,12,0.0,3.1,60,0.00,,---,0.00,VWS V14.01,2013-05-12 06:18:00,
2013-05-12 02:23:00,37.9,25.5,30.10,NNE,12,0.0,3.1,60,0.00,,---,0.00,VWS V14.01,2013-05-12 06:23:00,
2013-05-12 02:28:00,37.9,25.9,30.10,NNE,18,2.2,3.1,62,0.00,,---,0.00,VWS V14.01,2013-05-12 06:28:00,
2013-05-12 02:33:00,37.8,25.8,30.07,NW,312,0.0,3.1,62,0.00,,---,0.00,VWS V14.01,2013-05-12 06:33:00,
2013-05-12 02:38:00,37.8,25.8,30.07,North,350,0.0,3.1,62,0.00,,---,0.00,VWS V14.01,2013-05-12 06:38:00,
2013-05-12 02:43:00,37.6,25.6,30.07,North,350,0.0,3.1,62,0.00,,---,0.00,VWS V14.01,2013-05-12 06:43:00,
2013-05-12 02:48:00,37.6,25.6,30.07,West,275,0.0,3.1,62,0.00,,---,0.00,VWS V14.01,2013-05-12 06:48:00,
2013-05-12 02:53:00,37.4,25.4,30.07,West,275,0.0,3.1,62,0.00,,---,0.00,VWS V14.01,2013-05-12 06:53:00,
2013-05-12 02:58:00,37.2,25.7,30.07,WSW,258,0.0,3.1,63,0.00,,---,0.00,VWS V14.01,2013-05-12 06:58:00,
2013-05-12 03:03:00,37.2,25.7,30.07,WSW,253,0.0,0.0,63,0.00,,---,0.00,VWS V14.01,2013-05-12 07:03:00,
2013-05-12 03:09:00,37.2,25.7,30.07,WNW,303,0.0,0.0,63,0.00,,---,0.00,VWS V14.01,2013-05-12 07:09:00,
2013-05-12 03:14:00,37.2,25.7,30.07,NW,305,0.0,0.0,63,0.00,,---,0.00,VWS V14.01,2013-05-12 07:14:00,
2013-05-12 03:19:00,37.2,25.7,30.07,NW,304,0.0,0.0,63,0.00,,---,0.00,VWS V14.01,2013-05-12 07:19:00,
2013-05-12 03:24:00,37.2,26.1,30.07,SW,218,3.6,3.6,64,0.00,,---,0.00,VWS V14.01,2013-05-12 07:24:00,
2013-05-12 03:29:00,37.4,25.8,30.07,West,261,0.0,3.6,63,0.00,,---,0.00,VWS V14.01,2013-05-12 07:29:00,
2013-05-12 03:34:00,37.6,25.6,30.07,North,353,0.0,3.6,62,0.00,,---,0.00,VWS V14.01,2013-05-12 07:34:00,
2013-05-12 03:39:00,37.8,25.8,30.07,North,353,0.0,4.0,62,0.00,,---,0.00,VWS V14.01,2013-05-12 07:39:00,
2013-05-12 03:44:00,37.8,25.3,30.07,NE,39,0.0,4.0,60,0.00,,---,0.00,VWS V14.01,2013-05-12 07:44:00,
2013-05-12 03:49:00,37.8,25.3,30.07,SSW,204,0.0,4.0,60,0.00,,---,0.00,VWS V14.01,2013-05-12 07:49:00,
2013-05-12 03:54:00,37.8,25.3,30.07,SSW,204,0.0,4.0,60,0.00,,---,0.00,VWS V14.01,2013-05-12 07:54:00,
2013-05-12 03:59:00,37.6,25.2,30.07,SSW,205,0.0,4.0,60,0.00,,---,0.00,VWS V14.01,2013-05-12 07:59:00,
2013-05-12 04:04:00,37.4,24.6,30.07,SW,218,0.0,0.0,59,0.00,,---,0.00,VWS V14.01,2013-05-12 08:04:00,
2013-05-12 04:09:00,37.2,24.8,30.07,SSW,200,0.0,0.0,60,0.00,,---,0.00,VWS V14.01,2013-05-12 08:09:00,
2013-05-12 04:14:00,37.0,25.1,30.07,SW,235,0.0,0.0,62,0.00,,---,0.00,VWS V14.01,2013-05-12 08:14:00,
2013-05-12 04:19:00,36.9,24.9,30.07,WSW,248,0.0,0.0,62,0.00,,---,0.00,VWS V14.01,2013-05-12 08:19:00,
2013-05-12 04:24:00,36.7,25.1,30.07,West,266,0.0,0.0,63,0.00,,---,0.00,VWS V14.01,2013-05-12 08:24:00,
2013-05-12 04:29:00,36.7,25.6,30.07,West,275,0.0,0.0,64,0.00,,---,0.00,VWS V14.01,2013-05-12 08:29:00,
2013-05-12 04:34:00,36.7,26.0,30.07,SSW,213,0.0,0.0,65,0.00,,---,0.00,VWS V14.01,2013-05-12 08:34:00,
2013-05-12 04:39:00,36.7,26.4,30.07,SSE,164,0.0,0.0,66,0.00,,---,0.00,VWS V14.01,2013-05-12 08:39:00,
2013-05-12 04:44:00,36.5,26.2,30.07,SW,232,0.0,2.7,66,0.00,,---,0.00,VWS V14.01,2013-05-12 08:44:00,
2013-05-12 04:49:00,36.5,26.6,30.04,SW,232,0.0,2.7,67,0.00,,---,0.00,VWS V14.01,2013-05-12 08:49:00,
2013-05-12 04:54:00,36.5,26.6,30.04,NW,308,0.0,4.0,67,0.00,,---,0.00,VWS V14.01,2013-05-12 08:54:00,
2013-05-12 04:59:00,36.5,26.6,30.04,WSW,245,0.0,4.0,67,0.00,,---,0.00,VWS V14.01,2013-05-12 08:59:00,
2013-05-12 05:04:00,36.3,26.8,30.07,SW,222,0.0,0.0,68,0.00,,---,0.00,VWS V14.01,2013-05-12 09:04:00,
2013-05-12 05:09:00,36.3,26.8,30.07,South,170,0.0,0.0,68,0.00,,---,0.00,VWS V14.01,2013-05-12 09:09:00,
2013-05-12 05:14:00,36.3,27.2,30.07,North,350,0.0,3.1,69,0.00,,---,0.00,VWS V14.01,2013-05-12 09:14:00,
2013-05-12 05:19:00,36.5,27.7,30.07,NW,320,0.0,3.1,70,0.00,,---,0.00,VWS V14.01,2013-05-12 09:19:00,
2013-05-12 05:24:00,36.5,27.7,30.07,West,273,0.0,3.1,70,0.00,,---,0.00,VWS V14.01,2013-05-12 09:24:00,
2013-05-12 05:29:00,36.3,27.6,30.07,West,263,0.0,3.1,70,0.00,,---,0.00,VWS V14.01,2013-05-12 09:29:00,
2013-05-12 05:34:00,36.3,27.6,30.07,WNW,292,0.0,3.1,70,0.00,,---,0.00,VWS V14.01,2013-05-12 09:34:00,
2013-05-12 05:39:00,36.3,27.6,30.07,SW,221,0.0,3.1,70,0.00,,---,0.00,VWS V14.01,2013-05-12 09:39:00,
2013-05-12 05:44:00,36.3,27.6,30.07,SW,221,0.0,3.1,70,0.00,,---,0.00,VWS V14.01,2013-05-12 09:44:00,
2013-05-12 05:49:00,36.5,28.1,30.07,NE,45,0.0,3.1,71,0.00,,---,0.00,VWS V14.01,2013-05-12 09:49:00,
2013-05-12 05:54:00,36.5,28.1,30.07,WNW,288,2.2,3.1,71,0.00,,---,0.00,VWS V14.01,2013-05-12 09:54:00,
2013-05-12 05:59:00,36.5,28.1,30.07,SSW,194,0.0,3.1,71,0.00,,---,0.00,VWS V14.01,2013-05-12 09:59:00,
2013-05-12 06:04:00,36.3,27.9,30.07,SSW,194,0.0,0.0,71,0.00,,---,0.00,VWS V14.01,2013-05-12 10:04:00,
2013-05-12 06:09:00,36.3,27.6,30.07,WSW,246,0.0,4.0,70,0.00,,---,0.00,VWS V14.01,2013-05-12 10:09:00,
2013-05-12 06:14:00,36.3,27.9,30.07,SW,220,0.0,4.0,71,0.00,,---,0.00,VWS V14.01,2013-05-12 10:14:00,
2013-05-12 06:19:00,36.3,27.9,30.07,NNW,328,0.0,4.0,71,0.00,,---,0.00,VWS V14.01,2013-05-12 10:19:00,
2013-05-12 06:24:00,36.1,27.8,30.07,NW,322,0.0,4.9,71,0.00,,---,0.00,VWS V14.01,2013-05-12 10:24:00,
2013-05-12 06:29:00,36.1,27.8,30.07,WNW,293,0.0,4.9,71,0.00,,---,0.00,VWS V14.01,2013-05-12 10:29:00,
2013-05-12 06:34:00,36.5,28.5,30.07,NW,318,2.2,4.9,72,0.00,,---,0.00,VWS V14.01,2013-05-12 10:34:00,
2013-05-12 06:40:00,36.7,28.6,30.07,North,9,0.0,4.9,72,0.00,,---,0.00,VWS V14.01,2013-05-12 10:40:00,
2013-05-12 06:45:00,36.9,28.5,30.07,North,353,0.0,7.6,71,0.00,,---,0.00,VWS V14.01,2013-05-12 10:45:00,
2013-05-12 06:50:00,37.0,27.9,30.07,North,357,0.0,7.6,69,0.00,,---,0.00,VWS V14.01,2013-05-12 10:50:00,
2013-05-12 06:55:00,37.4,27.0,30.07,North,357,0.0,7.6,66,0.00,,---,0.00,VWS V14.01,2013-05-12 10:55:00,
2013-05-12 07:00:00,37.6,26.4,30.07,North,349,5.8,7.6,64,0.00,,---,0.00,VWS V14.01,2013-05-12 11:00:00,
2013-05-12 07:05:00,37.6,26.4,30.07,North,0,0.0,6.3,64,0.00,,---,0.00,VWS V14.01,2013-05-12 11:05:00,
2013-05-12 07:10:00,37.8,25.3,30.07,North,353,0.0,6.3,60,0.00,,---,0.00,VWS V14.01,2013-05-12 11:10:00,
2013-05-12 07:15:00,37.9,24.2,30.07,North,353,5.8,6.3,57,0.00,,---,0.00,VWS V14.01,2013-05-12 11:15:00,
2013-05-12 07:20:00,38.1,23.4,30.07,WNW,299,0.0,6.3,55,0.00,,---,0.00,VWS V14.01,2013-05-12 11:20:00,
2013-05-12 07:25:00,38.5,22.8,30.07,WSW,237,0.0,12.8,53,0.00,,---,0.00,VWS V14.01,2013-05-12 11:25:00,
2013-05-12 07:30:00,38.7,23.0,30.07,WSW,257,12.3,12.8,53,0.00,,---,0.00,VWS V14.01,2013-05-12 11:30:00,
2013-05-12 07:35:00,38.7,21.0,30.07,NW,316,2.7,12.8,49,0.00,,---,0.00,VWS V14.01,2013-05-12 11:35:00,
2013-05-12 07:40:00,38.8,20.1,30.07,NNE,24,0.0,12.8,46,0.00,,---,0.00,VWS V14.01,2013-05-12 11:40:00,
2013-05-12 07:45:00,39.2,20.4,30.07,North,6,0.0,12.8,46,0.00,,---,0.00,VWS V14.01,2013-05-12 11:45:00,
2013-05-12 07:50:00,39.4,20.6,30.07,NW,306,4.0,12.8,46,0.00,,---,0.00,VWS V14.01,2013-05-12 11:50:00,
2013-05-12 07:55:00,39.4,20.0,30.07,North,0,3.1,12.8,45,0.00,,---,0.00,VWS V14.01,2013-05-12 11:55:00,
2013-05-12 08:00:00,39.6,20.2,30.07,NNE,26,7.6,12.8,45,0.00,,---,0.00,VWS V14.01,2013-05-12 12:00:00,
2013-05-12 08:05:00,39.7,19.8,30.10,NNW,346,5.4,15.4,44,0.00,,---,0.00,VWS V14.01,2013-05-12 12:05:00,
2013-05-12 08:10:00,39.9,20.5,30.10,NNW,341,3.6,15.4,45,0.00,,---,0.00,VWS V14.01,2013-05-12 12:10:00,
2013-05-12 08:15:00,40.3,20.3,30.10,North,0,8.3,15.4,44,0.00,,---,0.00,VWS V14.01,2013-05-12 12:15:00,
2013-05-12 08:20:00,40.6,21.2,30.10,WSW,242,0.0,15.4,45,0.00,,---,0.00,VWS V14.01,2013-05-12 12:20:00,
2013-05-12 08:25:00,40.8,20.2,30.10,North,2,4.0,19.2,43,0.00,,---,0.00,VWS V14.01,2013-05-12 12:25:00,
2013-05-12 08:30:00,40.6,19.4,30.10,North,0,10.5,19.2,42,0.00,,---,0.00,VWS V14.01,2013-05-12 12:30:00,
2013-05-12 08:35:00,41.0,19.8,30.10,NNW,331,2.7,19.2,42,0.00,,---,0.00,VWS V14.01,2013-05-12 12:35:00,
2013-05-12 08:40:00,41.5,19.6,30.10,NE,52,5.8,19.2,41,0.00,,---,0.00,VWS V14.01,2013-05-12 12:40:00,
2013-05-12 08:45:00,41.9,20.6,30.10,North,10,0.0,19.2,42,0.00,,---,0.00,VWS V14.01,2013-05-12 12:45:00,
2013-05-12 08:50:00,42.1,20.7,30.10,NW,326,8.7,19.2,42,0.00,,---,0.00,VWS V14.01,2013-05-12 12:50:00,
2013-05-12 08:55:00,41.9,20.6,30.10,North,353,8.1,19.2,42,0.00,,---,0.00,VWS V14.01,2013-05-12 12:55:00,
2013-05-12 09:00:00,41.9,20.6,30.10,NNE,14,5.4,19.2,42,0.00,,---,0.00,VWS V14.01,2013-05-12 13:00:00,
2013-05-12 09:05:00,41.7,20.4,30.13,West,274,3.6,8.3,42,0.00,,---,0.00,VWS V14.01,2013-05-12 13:05:00,
2013-05-12 09:10:00,41.7,20.4,30.13,NNW,337,8.7,10.1,42,0.00,,---,0.00,VWS V14.01,2013-05-12 13:10:00,
2013-05-12 09:15:00,41.5,19.6,30.13,NNW,337,2.2,11.0,41,0.00,,---,0.00,VWS V14.01,2013-05-12 13:15:00,
2013-05-12 09:20:00,41.5,20.2,30.13,North,353,5.8,11.0,42,0.00,,---,0.00,VWS V14.01,2013-05-12 13:20:00,
2013-05-12 09:25:00,41.7,19.2,30.13,WSW,252,5.8,11.0,40,0.00,,---,0.00,VWS V14.01,2013-05-12 13:25:00,
2013-05-12 09:30:00,42.1,20.7,30.13,WSW,244,2.7,11.0,42,0.00,,---,0.00,VWS V14.01,2013-05-12 13:30:00,
2013-05-12 09:35:00,42.3,20.3,30.13,North,353,3.1,11.0,41,0.00,,---,0.00,VWS V14.01,2013-05-12 13:35:00,
2013-05-12 09:40:00,42.6,19.3,30.13,North,9,8.1,13.2,39,0.00,,---,0.00,VWS V14.01,2013-05-12 13:40:00,
2013-05-12 09:45:00,42.8,18.8,30.13,North,357,2.7,13.2,38,0.00,,---,0.00,VWS V14.01,2013-05-12 13:45:00,
2013-05-12 09:50:00,43.0,17.6,30.16,WNW,301,15.4,15.4,36,0.00,,---,0.00,VWS V14.01,2013-05-12 13:50:00,
2013-05-12 09:55:00,43.3,18.0,30.16,WSW,238,3.6,15.4,36,0.00,,---,0.00,VWS V14.01,2013-05-12 13:55:00,
2013-05-12 10:00:00,43.7,18.3,30.16,NE,43,5.8,12.3,36,0.00,,---,0.00,VWS V14.01,2013-05-12 14:00:00,
2013-05-12 10:05:00,44.1,18.6,30.16,NNE,28,8.1,13.2,36,0.00,,---,0.00,VWS V14.01,2013-05-12 14:05:00,
2013-05-12 10:11:00,43.7,18.3,30.16,North,353,4.0,13.2,36,0.00,,---,0.00,VWS V14.01,2013-05-12 14:11:00,
2013-05-12 10:17:00,43.5,18.1,30.16,NNW,340,5.4,13.2,36,0.00,,---,0.00,VWS V14.01,2013-05-12 14:17:00,
2013-05-12 10:22:00,43.3,17.2,30.16,North,353,5.4,13.2,35,0.00,,---,0.00,VWS V14.01,2013-05-12 14:22:00,
2013-05-12 10:27:00,43.5,19.5,30.16,NW,312,8.1,13.2,38,0.00,,---,0.00,VWS V14.01,2013-05-12 14:27:00,
2013-05-12 10:32:00,43.3,18.0,30.16,NW,322,5.4,13.2,36,0.00,,---,0.00,VWS V14.01,2013-05-12 14:32:00,
2013-05-12 10:37:00,43.5,18.8,30.16,North,0,6.3,13.2,37,0.00,,---,0.00,VWS V14.01,2013-05-12 14:37:00,
2013-05-12 10:42:00,43.5,18.1,30.16,North,353,5.8,13.2,36,0.00,,---,0.00,VWS V14.01,2013-05-12 14:42:00,
2013-05-12 10:47:00,43.3,18.0,30.16,North,0,5.4,13.2,36,0.00,,---,0.00,VWS V14.01,2013-05-12 14:47:00,
2013-05-12 10:52:00,43.2,18.5,30.16,NNW,332,3.6,13.2,37,0.00,,---,0.00,VWS V14.01,2013-05-12 14:52:00,
2013-05-12 10:57:00,43.3,18.6,30.16,NNE,14,0.0,13.2,37,0.00,,---,0.00,VWS V14.01,2013-05-12 14:57:00,
2013-05-12 11:02:00,43.9,20.5,30.16,NNW,329,10.1,10.5,39,0.00,,---,0.00,VWS V14.01,2013-05-12 15:02:00,
2013-05-12 11:07:00,43.9,17.7,30.16,North,353,3.6,10.5,35,0.00,,---,0.00,VWS V14.01,2013-05-12 15:07:00,
2013-05-12 11:12:00,44.1,21.3,30.16,WSW,252,2.7,10.5,40,0.00,,---,0.00,VWS V14.01,2013-05-12 15:12:00,
2013-05-12 11:17:00,44.2,20.1,30.13,North,353,4.9,13.6,38,0.00,,---,0.00,VWS V14.01,2013-05-12 15:17:00,
2013-05-12 11:22:00,44.6,19.8,30.13,NNW,341,0.0,13.6,37,0.00,,---,0.00,VWS V14.01,2013-05-12 15:22:00,
2013-05-12 11:27:00,45.5,21.3,30.13,North,9,3.6,13.6,38,0.00,,---,0.00,VWS V14.01,2013-05-12 15:27:00,
2013-05-12 11:32:00,45.7,18.6,30.16,NNE,18,2.7,13.6,33,0.00,,---,0.00,VWS V14.01,2013-05-12 15:32:00,
2013-05-12 11:37:00,45.5,18.4,30.16,NW,322,2.7,15.4,33,0.00,,---,0.00,VWS V14.01,2013-05-12 15:37:00,
2013-05-12 11:42:00,45.5,18.4,30.16,North,0,3.6,15.4,33,0.00,,---,0.00,VWS V14.01,2013-05-12 15:42:00,
2013-05-12 11:47:00,45.5,18.4,30.16,WSW,254,10.5,15.4,33,0.00,,---,0.00,VWS V14.01,2013-05-12 15:47:00,
2013-05-12 11:52:00,45.5,16.9,30.16,NNW,330,3.1,15.4,31,0.00,,---,0.00,VWS V14.01,2013-05-12 15:52:00,
2013-05-12 11:57:00,45.5,17.7,30.16,North,353,10.1,15.4,32,0.00,,---,0.00,VWS V14.01,2013-05-12 15:57:00,
2013-05-12 12:07:00,47.1,23.4,30.16,West,260,4.0,12.3,39,0.00,,---,0.00,VWS V14.01,2013-05-12 16:07:00,
2013-05-12 12:12:00,47.3,20.0,30.16,North,353,4.9,12.3,33,0.00,,---,0.00,VWS V14.01,2013-05-12 16:12:00,
2013-05-12 12:18:00,47.3,18.5,30.16,North,3,3.1,12.3,31,0.00,,---,0.00,VWS V14.01,2013-05-12 16:18:00,
2013-05-12 12:23:00,47.1,18.3,30.16,SW,230,3.1,12.3,31,0.00,,---,0.00,VWS V14.01,2013-05-12 16:23:00,
2013-05-12 12:28:00,47.1,18.3,30.16,NW,318,2.7,12.3,31,0.00,,---,0.00,VWS V14.01,2013-05-12 16:28:00,
2013-05-12 12:33:00,46.8,18.0,30.16,NW,326,2.7,12.3,31,0.00,,---,0.00,VWS V14.01,2013-05-12 16:33:00,
2013-05-12 12:44:00,47.3,18.5,30.16,North,0,8.1,12.3,31,0.00,,---,0.00,VWS V14.01,2013-05-12 16:44:00,
2013-05-12 12:55:00,48.7,18.9,30.16,WNW,290,3.6,14.5,30,0.00,,---,0.00,VWS V14.01,2013-05-12 16:55:00,
2013-05-12 13:00:00,48.4,18.6,30.16,NNE,22,15.4,17.0,30,0.00,,---,0.00,VWS V14.01,2013-05-12 17:00:00,
2013-05-12 13:05:00,49.1,20.0,30.16,North,357,5.8,15.4,31,0.00,,---,0.00,VWS V14.01,2013-05-12 17:05:00,
2013-05-12 13:10:00,48.7,18.0,30.16,WNW,301,8.3,15.4,29,0.00,,---,0.00,VWS V14.01,2013-05-12 17:10:00,
2013-05-12 13:15:00,48.7,18.9,30.16,North,357,4.0,15.4,30,0.00,,---,0.00,VWS V14.01,2013-05-12 17:15:00,
2013-05-12 13:20:00,48.6,18.7,30.16,North,0,3.6,15.4,30,0.00,,---,0.00,VWS V14.01,2013-05-12 17:20:00,
2013-05-12 13:25:00,48.6,18.7,30.16,North,353,3.6,15.4,30,0.00,,---,0.00,VWS V14.01,2013-05-12 17:25:00,
2013-05-12 13:30:00,49.1,19.2,30.16,NNE,17,7.6,15.4,30,0.00,,---,0.00,VWS V14.01,2013-05-12 17:30:00,
2013-05-12 13:35:00,49.8,19.0,30.16,North,2,3.6,15.4,29,0.00,,---,0.00,VWS V14.01,2013-05-12 17:35:00,
2013-05-12 13:40:00,48.9,18.2,30.16,North,0,0.0,15.4,29,0.00,,---,0.00,VWS V14.01,2013-05-12 17:40:00,
2013-05-12 13:45:00,48.4,18.6,30.16,North,357,0.0,15.4,30,0.00,,---,0.00,VWS V14.01,2013-05-12 17:45:00,
2013-05-12 13:50:00,48.2,18.4,30.16,North,5,3.6,15.4,30,0.00,,---,0.00,VWS V14.01,2013-05-12 17:50:00,
2013-05-12 13:55:00,49.3,18.5,30.16,SW,215,5.8,15.4,29,0.00,,---,0.00,VWS V14.01,2013-05-12 17:55:00,
2013-05-12 14:00:00,49.3,18.5,30.16,North,0,15.0,15.0,29,0.00,,---,0.00,VWS V14.01,2013-05-12 18:00:00,
2013-05-12 14:05:00,49.1,19.2,30.16,NNW,337,2.7,15.0,30,0.00,,---,0.00,VWS V14.01,2013-05-12 18:05:00,
2013-05-12 14:10:00,49.3,19.4,30.16,NW,325,11.0,15.0,30,0.00,,---,0.00,VWS V14.01,2013-05-12 18:10:00,
2013-05-12 14:15:00,50.4,19.5,30.16,NNW,337,4.0,15.0,29,0.00,,---,0.00,VWS V14.01,2013-05-12 18:15:00,
2013-05-12 14:20:00,50.2,18.4,30.16,West,267,2.7,15.0,28,0.00,,---,0.00,VWS V14.01,2013-05-12 18:20:00,
2013-05-12 14:25:00,49.1,18.4,30.16,WNW,289,3.1,15.0,29,0.00,,---,0.00,VWS V14.01,2013-05-12 18:25:00,
2013-05-12 14:30:00,49.1,18.4,30.16,WNW,289,2.7,15.0,29,0.00,,---,0.00,VWS V14.01,2013-05-12 18:30:00,
2013-05-12 14:35:00,49.6,18.8,30.16,West,277,2.7,15.0,29,0.00,,---,0.00,VWS V14.01,2013-05-12 18:35:00,
2013-05-12 14:40:00,50.0,19.1,30.16,WNW,298,4.0,15.0,29,0.00,,---,0.00,VWS V14.01,2013-05-12 18:40:00,
2013-05-12 14:46:00,50.2,19.3,30.16,North,350,0.0,15.0,29,0.00,,---,0.00,VWS V14.01,2013-05-12 18:46:00,
2013-05-12 14:51:00,49.8,19.0,30.16,NW,310,10.5,15.0,29,0.00,,---,0.00,VWS V14.01,2013-05-12 18:51:00,
2013-05-12 14:56:00,49.5,18.7,30.16,NNW,338,8.7,15.0,29,0.00,,---,0.00,VWS V14.01,2013-05-12 18:56:00,
2013-05-12 15:01:00,49.8,19.0,30.16,NNE,25,3.1,12.8,29,0.00,,---,0.00,VWS V14.01,2013-05-12 19:01:00,
2013-05-12 15:06:00,50.2,18.4,30.16,WSW,257,8.1,12.8,28,0.00,,---,0.00,VWS V14.01,2013-05-12 19:06:00,
2013-05-12 15:11:00,49.8,19.0,30.16,WSW,242,2.7,14.5,29,0.00,,---,0.00,VWS V14.01,2013-05-12 19:11:00,
2013-05-12 15:16:00,49.5,18.7,30.16,North,353,3.1,14.5,29,0.00,,---,0.00,VWS V14.01,2013-05-12 19:16:00,
2013-05-12 15:21:00,49.5,18.7,30.19,NNE,28,3.6,14.5,29,0.00,,---,0.00,VWS V14.01,2013-05-12 19:21:00,
2013-05-12 15:26:00,49.8,19.0,30.19,NNE,17,8.3,14.5,29,0.00,,---,0.00,VWS V14.01,2013-05-12 19:26:00,
2013-05-12 15:31:00,49.3,18.5,30.19,NE,52,2.7,14.5,29,0.00,,---,0.00,VWS V14.01,2013-05-12 19:31:00,
2013-05-12 15:36:00,48.9,18.2,30.19,NW,318,3.6,14.5,29,0.00,,---,0.00,VWS V14.01,2013-05-12 19:36:00,
2013-05-12 15:41:00,48.7,18.0,30.19,WNW,282,3.1,14.5,29,0.00,,---,0.00,VWS V14.01,2013-05-12 19:41:00,
2013-05-12 15:46:00,48.9,18.2,30.19,West,262,0.0,14.5,29,0.00,,---,0.00,VWS V14.01,2013-05-12 19:46:00,
2013-05-12 15:51:00,48.7,18.0,30.19,NW,307,5.8,14.5,29,0.00,,---,0.00,VWS V14.01,2013-05-12 19:51:00,
2013-05-12 15:56:00,49.3,18.5,30.19,NE,43,4.9,14.5,29,0.00,,---,0.00,VWS V14.01,2013-05-12 19:56:00,
2013-05-12 16:01:00,49.3,18.5,30.19,North,11,3.6,8.1,29,0.00,,---,0.00,VWS V14.01,2013-05-12 20:01:00,
2013-05-12 16:06:00,49.5,17.8,30.19,WNW,299,5.4,13.6,28,0.00,,---,0.00,VWS V14.01,2013-05-12 20:06:00,
2013-05-12 16:11:00,49.1,18.4,30.19,NW,314,3.1,14.5,29,0.00,,---,0.00,VWS V14.01,2013-05-12 20:11:00,
2013-05-12 16:16:00,49.1,17.5,30.19,NNE,19,3.1,14.5,28,0.00,,---,0.00,VWS V14.01,2013-05-12 20:16:00,
2013-05-12 16:21:00,49.1,18.4,30.19,SW,214,8.1,14.5,29,0.00,,---,0.00,VWS V14.01,2013-05-12 20:21:00,
2013-05-12 16:26:00,49.3,18.5,30.19,North,11,3.1,14.5,29,0.00,,---,0.00,VWS V14.01,2013-05-12 20:26:00,
2013-05-12 16:31:00,49.5,17.8,30.19,NNW,338,4.9,14.5,28,0.00,,---,0.00,VWS V14.01,2013-05-12 20:31:00,
2013-05-12 16:36:00,48.9,17.3,30.19,NNW,330,12.8,14.5,28,0.00,,---,0.00,VWS V14.01,2013-05-12 20:36:00,
2013-05-12 16:41:00,49.3,18.5,30.19,West,278,2.2,14.5,29,0.00,,---,0.00,VWS V14.01,2013-05-12 20:41:00,
2013-05-12 16:46:00,49.3,18.5,30.19,NNE,12,5.8,14.5,29,0.00,,---,0.00,VWS V14.01,2013-05-12 20:46:00,
2013-05-12 16:51:00,49.5,18.7,30.19,West,268,0.0,14.5,29,0.00,,---,0.00,VWS V14.01,2013-05-12 20:51:00,
2013-05-12 16:56:00,49.6,18.8,30.19,NNW,342,6.3,14.5,29,0.00,,---,0.00,VWS V14.01,2013-05-12 20:56:00,
2013-05-12 17:01:00,49.6,18.8,30.19,NW,325,5.8,5.8,29,0.00,,---,0.00,VWS V14.01,2013-05-12 21:01:00,
2013-05-12 17:06:00,49.1,17.5,30.19,North,353,14.5,14.5,28,0.00,,---,0.00,VWS V14.01,2013-05-12 21:06:00,
2013-05-12 17:11:00,49.3,18.5,30.19,NW,308,3.6,14.5,29,0.00,,---,0.00,VWS V14.01,2013-05-12 21:11:00,
2013-05-12 17:16:00,48.7,17.2,30.19,WSW,253,12.3,14.5,28,0.00,,---,0.00,VWS V14.01,2013-05-12 21:16:00,
2013-05-12 17:21:00,48.4,16.9,30.19,NNE,18,4.0,14.5,28,0.00,,---,0.00,VWS V14.01,2013-05-12 21:21:00,
2013-05-12 17:26:00,48.2,17.6,30.19,WSW,252,0.0,14.5,29,0.00,,---,0.00,VWS V14.01,2013-05-12 21:26:00,
2013-05-12 17:31:00,48.0,17.4,30.19,NW,318,9.6,14.5,29,0.00,,---,0.00,VWS V14.01,2013-05-12 21:31:00,
2013-05-12 17:36:00,48.0,17.4,30.19,North,353,3.6,15.0,29,0.00,,---,0.00,VWS V14.01,2013-05-12 21:36:00,
2013-05-12 17:41:00,47.8,17.3,30.19,NNW,343,4.9,15.0,29,0.00,,---,0.00,VWS V14.01,2013-05-12 21:41:00,
2013-05-12 17:46:00,47.8,17.3,30.19,WSW,254,8.1,15.0,29,0.00,,---,0.00,VWS V14.01,2013-05-12 21:46:00,
2013-05-12 17:51:00,47.5,17.0,30.19,NW,326,3.6,15.0,29,0.00,,---,0.00,VWS V14.01,2013-05-12 21:51:00,
2013-05-12 17:56:00,47.3,16.8,30.19,North,9,5.4,15.0,29,0.00,,---,0.00,VWS V14.01,2013-05-12 21:56:00,
2013-05-12 18:01:00,47.3,16.8,30.19,NNW,344,4.0,8.1,29,0.00,,---,0.00,VWS V14.01,2013-05-12 22:01:00,
2013-05-12 18:06:00,47.3,16.8,30.19,NNW,335,10.1,12.3,29,0.00,,---,0.00,VWS V14.01,2013-05-12 22:06:00,
2013-05-12 18:11:00,47.5,17.0,30.19,North,357,2.7,12.3,29,0.00,,---,0.00,VWS V14.01,2013-05-12 22:11:00,
2013-05-12 18:17:00,47.3,16.8,30.19,NNW,328,2.7,12.3,29,0.00,,---,0.00,VWS V14.01,2013-05-12 22:17:00,
2013-05-12 18:22:00,47.1,16.6,30.19,North,1,5.4,12.3,29,0.00,,---,0.00,VWS V14.01,2013-05-12 22:22:00,
2013-05-12 18:27:00,46.8,16.3,30.19,North,353,6.7,12.3,29,0.00,,---,0.00,VWS V14.01,2013-05-12 22:27:00,
2013-05-12 18:32:00,46.6,16.2,30.22,NNE,26,5.4,14.5,29,0.00,,---,0.00,VWS V14.01,2013-05-12 22:32:00,
2013-05-12 18:37:00,46.4,16.0,30.22,NNW,329,8.3,14.5,29,0.00,,---,0.00,VWS V14.01,2013-05-12 22:37:00,
2013-05-12 18:42:00,46.2,16.7,30.22,North,357,4.0,14.5,30,0.00,,---,0.00,VWS V14.01,2013-05-12 22:42:00,
2013-05-12 18:47:00,46.0,16.5,30.22,NW,309,8.7,14.5,30,0.00,,---,0.00,VWS V14.01,2013-05-12 22:47:00,
2013-05-12 18:52:00,45.9,16.4,30.22,North,357,4.9,14.5,30,0.00,,---,0.00,VWS V14.01,2013-05-12 22:52:00,
2013-05-12 18:57:00,45.7,16.2,30.22,NNW,335,3.6,14.5,30,0.00,,---,0.00,VWS V14.01,2013-05-12 22:57:00,
2013-05-12 19:02:00,45.5,16.1,30.22,NNW,343,0.0,3.1,30,0.00,,---,0.00,VWS V14.01,2013-05-12 23:02:00,
2013-05-12 19:07:00,45.5,16.1,30.22,NNW,345,6.3,10.5,30,0.00,,---,0.00,VWS V14.01,2013-05-12 23:07:00,
2013-05-12 19:12:00,45.3,15.9,30.22,NNW,338,2.2,10.5,30,0.00,,---,0.00,VWS V14.01,2013-05-12 23:12:00,
2013-05-12 19:17:00,45.3,15.9,30.22,NNW,341,2.2,10.5,30,0.00,,---,0.00,VWS V14.01,2013-05-12 23:17:00,
2013-05-12 19:22:00,45.1,15.8,30.22,NNE,27,10.1,10.5,30,0.00,,---,0.00,VWS V14.01,2013-05-12 23:22:00,
2013-05-12 19:27:00,45.1,15.8,30.22,NW,323,4.9,10.5,30,0.00,,---,0.00,VWS V14.01,2013-05-12 23:27:00,
2013-05-12 19:32:00,44.8,15.4,30.22,SE,135,3.6,12.8,30,0.00,,---,0.00,VWS V14.01,2013-05-12 23:32:00,
2013-05-12 19:37:00,44.8,15.4,30.22,West,263,9.6,12.8,30,0.00,,---,0.00,VWS V14.01,2013-05-12 23:37:00,
2013-05-12 19:42:00,44.6,15.3,30.22,North,0,11.0,12.8,30,0.00,,---,0.00,VWS V14.01,2013-05-12 23:42:00,
2013-05-12 19:47:00,44.4,15.1,30.22,North,353,7.2,12.8,30,0.00,,---,0.00,VWS V14.01,2013-05-12 23:47:00,
2013-05-12 19:52:00,44.4,15.1,30.22,North,357,5.8,12.8,30,0.00,,---,0.00,VWS V14.01,2013-05-12 23:52:00,
2013-05-12 19:57:00,44.2,15.0,30.22,West,265,2.7,12.8,30,0.00,,---,0.00,VWS V14.01,2013-05-12 23:57:00,
2013-05-12 20:02:00,44.1,15.6,30.22,North,353,2.7,10.5,31,0.00,,---,0.00,VWS V14.01,2013-05-13 00:02:00,
2013-05-12 20:07:00,44.1,14.8,30.22,ENE,58,5.8,10.5,30,0.00,,---,0.00,VWS V14.01,2013-05-13 00:07:00,
2013-05-12 20:12:00,43.9,14.6,30.22,NNW,330,3.6,10.5,30,0.00,,---,0.00,VWS V14.01,2013-05-13 00:12:00,
2013-05-12 20:17:00,43.7,14.5,30.22,NNW,343,0.0,11.0,30,0.00,,---,0.00,VWS V14.01,2013-05-13 00:17:00,
2013-05-12 20:22:00,43.7,15.3,30.22,North,8,6.7,11.0,31,0.00,,---,0.00,VWS V14.01,2013-05-13 00:22:00,
2013-05-12 20:27:00,43.5,15.1,30.22,NNW,348,3.6,12.8,31,0.00,,---,0.00,VWS V14.01,2013-05-13 00:27:00,
2013-05-12 20:32:00,43.5,14.3,30.22,NNW,329,2.2,12.8,30,0.00,,---,0.00,VWS V14.01,2013-05-13 00:32:00,
2013-05-12 20:37:00,43.3,14.2,30.22,North,353,8.1,12.8,30,0.00,,---,0.00,VWS V14.01,2013-05-13 00:37:00,
2013-05-12 20:42:00,43.2,14.0,30.22,NW,319,0.0,12.8,30,0.00,,---,0.00,VWS V14.01,2013-05-13 00:42:00,
2013-05-12 20:47:00,43.0,13.9,30.22,WNW,303,3.1,12.8,30,0.00,,---,0.00,VWS V14.01,2013-05-13 00:47:00,
2013-05-12 20:52:00,42.8,13.7,30.22,North,0,6.3,12.8,30,0.00,,---,0.00,VWS V14.01,2013-05-13 00:52:00,
2013-05-12 20:57:00,42.6,14.4,30.22,North,353,3.6,12.8,31,0.00,,---,0.00,VWS V14.01,2013-05-13 00:57:00,
2013-05-12 21:02:00,42.3,14.0,30.24,North,10,0.0,0.0,31,0.00,,---,0.00,VWS V14.01,2013-05-13 01:02:00,
2013-05-12 21:07:00,42.1,13.9,30.24,NNE,18,3.1,4.0,31,0.00,,---,0.00,VWS V14.01,2013-05-13 01:07:00,
2013-05-12 21:12:00,41.7,13.6,30.24,NNE,21,0.0,6.7,31,0.00,,---,0.00,VWS V14.01,2013-05-13 01:12:00,
2013-05-12 21:17:00,41.5,13.4,30.24,North,9,5.8,7.6,31,0.00,,---,0.00,VWS V14.01,2013-05-13 01:17:00,
2013-05-12 21:22:00,41.5,13.4,30.24,NNE,12,0.0,7.6,31,0.00,,---,0.00,VWS V14.01,2013-05-13 01:22:00,
2013-05-12 21:27:00,41.2,13.1,30.24,North,0,2.7,7.6,31,0.00,,---,0.00,VWS V14.01,2013-05-13 01:27:00,
2013-05-12 21:32:00,41.0,12.9,30.22,NNE,21,0.0,7.6,31,0.00,,---,0.00,VWS V14.01,2013-05-13 01:32:00,
2013-05-12 21:37:00,40.6,13.4,30.22,North,353,0.0,7.6,32,0.00,,---,0.00,VWS V14.01,2013-05-13 01:37:00,
2013-05-12 21:42:00,40.5,13.2,30.22,North,353,0.0,7.6,32,0.00,,---,0.00,VWS V14.01,2013-05-13 01:42:00,
2013-05-12 21:47:00,40.3,13.1,30.24,NE,42,0.0,7.6,32,0.00,,---,0.00,VWS V14.01,2013-05-13 01:47:00,
2013-05-12 21:53:00,39.9,13.5,30.24,NNE,21,0.0,7.6,33,0.00,,---,0.00,VWS V14.01,2013-05-13 01:53:00,
2013-05-12 21:58:00,39.9,13.5,30.24,North,353,0.0,7.6,33,0.00,,---,0.00,VWS V14.01,2013-05-13 01:58:00,
2013-05-12 22:03:00,39.7,13.3,30.24,North,357,0.0,0.0,33,0.00,,---,0.00,VWS V14.01,2013-05-13 02:03:00,
2013-05-12 22:08:00,39.6,13.2,30.24,North,357,0.0,0.0,33,0.00,,---,0.00,VWS V14.01,2013-05-13 02:08:00,
2013-05-12 22:13:00,39.2,13.6,30.24,North,357,0.0,0.0,35,0.00,,---,0.00,VWS V14.01,2013-05-13 02:13:00,
2013-05-12 22:18:00,38.7,13.8,30.24,North,357,0.0,0.0,36,0.00,,---,0.00,VWS V14.01,2013-05-13 02:18:00,
2013-05-12 22:23:00,38.1,14.0,30.24,North,357,0.0,0.0,37,0.00,,---,0.00,VWS V14.01,2013-05-13 02:23:00,
2013-05-12 22:28:00,37.8,14.3,30.24,North,1,0.0,0.0,38,0.00,,---,0.00,VWS V14.01,2013-05-13 02:28:00,
2013-05-12 22:33:00,37.6,14.2,30.24,North,1,0.0,0.0,38,0.00,,---,0.00,VWS V14.01,2013-05-13 02:33:00,
2013-05-12 22:38:00,37.4,14.0,30.24,North,1,0.0,0.0,38,0.00,,---,0.00,VWS V14.01,2013-05-13 02:38:00,
2013-05-12 22:43:00,37.0,14.3,30.24,North,1,0.0,0.0,39,0.00,,---,0.00,VWS V14.01,2013-05-13 02:43:00,
2013-05-12 22:48:00,36.9,14.2,30.24,North,1,0.0,0.0,39,0.00,,---,0.00,VWS V14.01,2013-05-13 02:48:00,
2013-05-12 22:53:00,36.5,15.1,30.24,North,1,0.0,0.0,41,0.00,,---,0.00,VWS V14.01,2013-05-13 02:53:00,
2013-05-12 22:58:00,36.3,15.5,30.24,North,1,0.0,0.0,42,0.00,,---,0.00,VWS V14.01,2013-05-13 02:58:00,
2013-05-12 23:03:00,36.1,15.3,30.24,North,1,0.0,0.0,42,0.00,,---,0.00,VWS V14.01,2013-05-13 03:03:00,
2013-05-12 23:08:00,35.8,15.0,30.24,North,1,0.0,0.0,42,0.00,,---,0.00,VWS V14.01,2013-05-13 03:08:00,
2013-05-12 23:13:00,35.6,14.9,30.24,North,1,0.0,0.0,42,0.00,,---,0.00,VWS V14.01,2013-05-13 03:13:00,
2013-05-12 23:18:00,35.6,15.4,30.24,North,1,0.0,0.0,43,0.00,,---,0.00,VWS V14.01,2013-05-13 03:18:00,
2013-05-12 23:23:00,35.6,15.4,30.24,North,1,0.0,0.0,43,0.00,,---,0.00,VWS V14.01,2013-05-13 03:23:00,
2013-05-12 23:28:00,35.4,15.3,30.24,North,1,0.0,0.0,43,0.00,,---,0.00,VWS V14.01,2013-05-13 03:28:00,
2013-05-12 23:33:00,35.2,15.1,30.24,North,1,0.0,0.0,43,0.00,,---,0.00,VWS V14.01,2013-05-13 03:33:00,
2013-05-12 23:38:00,35.1,14.9,30.24,North,1,0.0,0.0,43,0.00,,---,0.00,VWS V14.01,2013-05-13 03:38:00,
2013-05-12 23:43:00,35.1,14.9,30.24,North,1,0.0,0.0,43,0.00,,---,0.00,VWS V14.01,2013-05-13 03:43:00,
2013-05-12 23:48:00,34.9,14.8,30.24,North,1,0.0,0.0,43,0.00,,---,0.00,VWS V14.01,2013-05-13 03:48:00,
2013-05-12 23:53:00,34.7,14.6,30.24,North,1,0.0,0.0,43,0.00,,---,0.00,VWS V14.01,2013-05-13 03:53:00,
2013-05-12 23:58:00,34.5,15.0,30.24,North,1,0.0,0.0,44,0.00,,---,0.00,VWS V14.01,2013-05-13 03:58:00,